Tracking 35237 objects as of 4-Sep-2026
HD Live streaming from Space Station
objects crossing your sky now

COSMOS 1408 DEB


COSMOS 1408 DEB is no longer on orbit


NORAD ID: 49826
Int'l Code: 1982-092KH
Launch date: September 16, 1982
Source: Commonwealth of Independent States (former USSR) (CIS)
Launch site: PLESETSK MISSILE AND SPACE COMPLEX (PKMTR)
Decay date: 2023-04-15

Note: This is SATELLITE DEBRIS
Your satellite tracking list
Your tracking list is empty




NASA's NSSDC Master Catalog

Two Line Element Set (TLE):
1 49826U 82092KH  23104.41991956  .23827862 -11516-5  30846-2 0  9995
2 49826  82.7497 359.7523 0011228 168.3875 191.7683 16.35634392 75542
Source of the keplerian elements: AFSPC